Theta_e
335 335 336 336 338 339 340 342 342 342 344 347 349 349 351 350 350 350 348 348 349 347 347 348 350 349 349 350 354 350 350 351 352 353 356 356 357 355 355 355 352 352 352 352
336 336 335 337 339 341 340 342 342 339 335 334 348 353 351 350 350 349 349 349 349 348 348 348 349 353 352 352 355 356 355 355 353 353 354 355 356 355 355 354 353 353 354 355
335 336 337 336 339 339 335 337 338 339 336 335 338 350 353 350 349 348 348 349 348 349 350 349 349 350 354 356 356 355 356 356 356 356 357 358 357 355 356 357 356 356 355 354
332 335 337 338 341 339 334 338 339 340 334 336 334 340 355 350 347 349 347 348 349 350 351 350 350 351 353 357 357 357 358 360 359 357 360 362 359 358 359 358 357 356 357 355
328 332 335 336 339 336 339 338 340 339 332 331 333 352 357 343 345 341 338 347 356 348 345 345 344 348 348 353 360 360 360 362 362 363 363 364 362 360 359 358 358 357 356 356
328 329 331 335 339 334 337 336 336 334 332 331 333 351 356 347 343 339 338 348 346 345 346 347 346 342 347 349 353 364 363 365 364 366 364 363 362 360 359 359 357 354 354 355
327 328 328 333 338 336 337 334 334 336 336 337 339 350 350 348 343 345 344 349 349 347 340 345 344 342 350 351 364 363 363 363 362 362 362 362 360 358 357 356 354 356 354 354
326 329 328 331 336 337 336 333 332 340 343 344 342 351 350 343 339 336 339 351 342 339 340 340 340 339 356 362 364 363 363 364 363 363 363 361 358 357 358 357 355 354 351 356
326 329 329 331 338 337 339 337 332 333 334 336 347 347 350 351 346 352 353 351 347 345 342 343 343 347 360 362 364 365 364 363 359 355 352 355 356 355 354 350 351 351 350 350
326 327 329 330 335 335 335 336 338 335 338 352 355 355 355 355 354 356 355 353 355 356 354 353 353 352 354 357 358 358 356 354 356 359 355 355 354 352 349 348 351 352 351 351
324 322 325 332 336 334 333 333 334 332 334 343 356 356 348 349 350 346 353 345 354 355 354 352 353 353 352 353 354 353 349 346 345 344 345 346 346 347 347 346 345 347 350 351
324 322 324 329 336 335 333 337 332 334 335 340 345 355 344 345 347 348 357 354 356 354 351 347 354 349 346 344 344 342 341 340 340 340 340 340 343 342 341 341 342 343 344 346
324 323 323 330 335 336 332 333 332 331 337 340 346 357 346 349 346 349 346 345 354 349 342 344 348 347 345 342 338 337 337 338 338 338 338 342 340 340 339 339 338 337 337 337
329 325 337 340 340 340 338 334 334 334 338 343 352 352 345 347 351 346 345 344 351 349 347 347 343 344 338 336 336 337 337 336 336 338 338 334 333 332 332 331 331 330 330 331
328 330 344 339 342 341 341 336 337 336 336 342 346 343 346 340 342 344 343 342 352 347 346 345 341 341 338 337 339 336 336 338 335 333 330 329 329 328 326 325 325 326 326 326
328 336 343 341 340 339 341 336 336 337 340 343 344 347 349 349 345 353 352 352 348 345 342 340 339 338 339 339 336 335 334 332 330 327 327 326 325 324 327 326 325 324 324 323
326 335 342 343 338 338 338 336 335 343 343 342 348 346 345 351 355 353 352 348 346 344 342 339 337 334 334 333 332 334 330 328 325 325 325 324 324 323 322 322 324 324 324 323
328 331 338 339 340 343 338 337 336 338 344 351 353 351 350 353 350 348 345 344 342 340 337 335 333 333 331 330 330 328 325 325 324 324 323 321 321 322 322 323 324 322 322 321
326 332 338 346 343 342 347 340 338 338 342 348 351 352 352 349 348 346 343 340 337 336 333 333 334 332 328 326 324 323 325 324 322 320 320 321 322 322 321 321 320 321 321 320
325 330 337 346 343 346 342 338 335 337 343 343 348 348 348 346 349 344 337 336 334 333 332 332 331 326 323 322 321 325 323 321 320 320 320 320 319 319 320 320 319 319 319 318
328 333 336 345 349 345 342 337 336 344 345 340 342 344 344 346 342 337 335 334 333 331 331 329 324 322 321 321 324 323 322 320 320 319 319 319 319 319 319 318 318 317 317 316
337 345 341 350 351 351 340 340 343 344 339 336 344 345 342 339 337 336 334 332 331 329 325 322 320 320 320 320 323 324 322 320 320 320 321 321 320 319 318 317 316 315 314 314
343 346 353 351 347 343 340 340 339 337 337 343 344 342 340 339 337 335 332 330 327 321 319 319 318 318 317 318 322 323 321 319 319 320 321 319 320 320 318 317 315 315 314 313
349 347 342 341 342 342 341 339 336 338 339 342 341 340 338 338 336 333 331 325 321 319 317 317 317 317 318 319 319 320 321 319 319 320 319 317 316 317 316 317 315 315 314 314
345 342 350 347 344 345 344 342 339 338 338 338 337 338 336 335 333 329 324 321 320 318 316 316 316 316 317 318 317 316 317 318 318 320 316 315 316 315 315 314 313 315 315 313
343 343 346 345 343 346 344 339 338 338 338 337 336 335 333 333 330 324 322 322 320 319 318 317 316 316 316 317 315 315 316 317 317 317 318 315 315 315 316 315 315 315 314 314
Wind_Speed
10 4 9 14 8 5 6 8 13 10 15 15 13 15 19 18 15 15 14 13 12 13 13 23 24 32 26 28 25 27 24 22 27 24 23 19 17 17 17 17 18 18 18 20
9 11 14 15 12 11 14 13 6 9 9 5 13 19 20 19 16 17 17 16 17 14 16 20 21 29 32 32 32 27 26 25 25 23 22 19 18 19 20 18 18 19 18 19
11 13 16 17 10 7 9 1 1 3 4 3 5 11 15 16 10 15 17 19 17 17 17 12 14 25 31 29 33 31 29 27 25 21 17 19 18 14 11 13 15 16 20 19
9 18 18 14 7 7 9 2 1 6 7 6 6 2 4 3 4 10 2 13 4 10 14 8 4 15 25 31 35 32 30 28 26 22 18 14 15 15 13 11 15 14 17 18
13 13 13 15 14 9 3 6 7 7 4 3 7 6 2 7 4 5 6 12 25 18 16 19 22 8 14 14 30 32 29 24 21 19 16 11 8 12 12 13 15 14 11 16
10 12 12 14 15 9 3 1 4 5 2 3 7 5 3 3 7 4 7 22 23 23 20 11 38 22 23 16 15 26 24 19 13 13 10 7 7 9 9 9 12 13 13 16
10 14 12 13 7 3 5 3 3 4 3 6 3 8 7 7 7 8 13 18 19 22 23 22 24 14 21 20 22 27 22 15 10 8 5 3 2 5 7 8 8 12 10 10
7 10 9 10 10 7 8 8 5 5 4 4 4 6 1 5 8 9 7 21 22 22 18 19 18 9 9 23 23 22 17 14 12 9 5 1 3 5 5 5 7 10 9 9
7 9 10 12 6 6 4 2 9 4 6 1 3 3 3 9 2 7 10 23 19 15 12 4 5 16 25 26 25 23 20 14 11 10 8 4 2 5 5 7 7 7 8 10
13 4 11 12 7 5 7 5 3 4 1 5 4 3 4 4 1 4 12 17 13 8 8 6 8 16 24 27 23 20 17 13 10 9 4 3 2 2 5 8 10 12 12 11
11 4 19 8 6 8 3 6 5 1 3 5 4 5 5 2 4 7 14 9 17 17 12 9 16 20 19 17 14 15 17 18 17 18 17 20 19 15 17 17 17 15 13 14
14 4 7 12 11 13 10 10 8 5 9 1 5 1 7 7 6 13 8 8 7 12 11 7 13 21 19 25 20 21 24 24 20 20 19 19 16 19 20 20 21 20 20 19
9 4 6 9 9 12 10 7 5 5 5 3 3 5 3 11 12 16 9 9 2 10 10 6 10 14 14 18 22 24 23 21 19 16 17 17 20 20 21 20 21 22 23 22
9 4 4 4 4 5 4 8 7 8 5 2 2 8 9 14 14 17 14 10 7 12 11 8 7 7 8 12 16 18 17 14 14 15 17 20 22 21 21 22 23 24 24 24
3 3 3 11 9 5 7 6 10 8 4 5 6 5 8 12 8 22 17 14 16 14 11 8 6 7 9 10 14 14 13 17 16 17 18 20 20 21 22 24 25 25 24 25
2 2 3 3 8 14 15 4 3 11 12 10 11 5 5 5 8 17 21 15 14 13 12 10 8 9 7 15 18 17 16 16 16 18 19 19 21 22 22 22 23 23 26 26
7 5 4 3 6 7 5 9 5 12 15 20 8 8 8 2 12 10 13 14 14 10 8 7 7 10 20 21 19 18 18 18 20 20 21 22 22 22 23 21 19 20 23 25
7 5 3 3 2 5 6 9 17 13 14 10 12 9 8 10 9 10 11 11 11 10 9 8 11 19 21 20 20 18 18 19 21 22 21 21 19 18 18 18 18 22 22 23
9 6 3 4 3 11 13 9 5 7 11 17 15 15 15 14 12 7 10 10 10 9 10 13 20 21 21 20 17 16 19 18 19 20 18 16 17 19 19 20 21 21 20 21
9 7 5 2 13 6 5 6 10 12 5 15 18 15 19 15 8 4 10 10 10 18 15 14 22 22 20 16 12 18 18 19 18 16 15 15 16 16 15 18 19 20 21 19
8 4 8 4 5 3 5 2 5 8 5 7 12 16 16 6 7 10 13 11 19 18 11 21 22 21 17 13 12 17 16 15 11 11 12 12 14 14 15 16 16 19 21 21
7 5 3 5 4 2 4 3 7 8 7 10 13 18 18 18 16 13 13 12 13 14 18 19 21 20 16 12 11 13 11 8 7 10 12 8 12 11 14 14 17 18 23 19
5 5 6 3 6 6 4 7 5 2 9 11 16 16 19 17 16 15 13 10 13 19 17 16 19 18 14 11 9 12 7 11 8 11 12 13 14 14 13 15 15 15 21 21
4 2 5 7 3 6 5 2 2 6 13 15 18 15 16 16 15 15 12 9 12 17 16 15 16 15 13 11 14 12 6 10 12 11 8 10 13 15 16 14 14 12 14 15
4 7 5 6 7 6 7 8 9 14 16 14 10 14 14 17 16 15 12 9 17 17 15 13 13 13 11 10 11 10 9 10 12 12 11 5 5 7 9 11 11 11 11 13
2 4 3 3 6 3 6 8 14 16 12 13 15 14 14 18 16 15 10 18 19 16 13 12 12 10 8 8 9 9 9 10 12 14 8 11 5 4 5 7 11 12 8 7
Wind_Direction
244 229 236 257 258 285 240 187 225 240 174 163 175 175 175 181 185 178 168 173 174 166 168 169 165 173 171 178 181 186 182 186 195 190 190 197 211 229 235 244 245 248 250 249
251 239 248 263 273 188 234 217 252 167 154 153 147 175 182 189 191 181 171 179 177 179 164 166 160 164 174 184 190 183 185 188 192 195 202 214 226 231 241 256 258 255 256 254
223 244 243 249 259 253 269 226 168 184 145 259 178 187 178 200 181 185 181 185 180 176 160 163 161 169 178 187 190 192 191 193 198 198 209 224 236 231 227 242 264 259 253 256
234 243 257 261 234 249 253 107 38 222 141 211 188 132 7 331 124 160 119 198 346 128 113 24 162 165 165 195 194 199 195 195 196 198 207 216 224 234 260 273 272 275 261 254
248 245 242 259 253 245 199 46 263 287 227 352 294 86 238 349 360 278 263 99 117 81 42 356 311 233 188 179 190 199 195 192 193 198 211 228 245 264 282 290 298 281 263 253
235 246 240 243 262 228 237 75 287 310 22 338 298 99 266 223 209 278 270 115 120 125 121 230 268 277 199 192 179 175 171 175 162 184 201 231 273 283 288 299 298 293 283 266
272 251 261 255 226 257 63 26 315 334 348 227 20 62 233 225 240 219 118 125 133 142 150 200 224 246 204 173 145 148 149 147 151 154 167 187 270 299 307 319 317 319 325 330
239 272 246 263 226 192 177 188 176 235 202 230 111 147 208 213 266 347 352 155 148 159 185 195 212 264 184 133 128 131 131 135 138 133 128 74 342 320 338 350 320 317 316 332
214 249 263 240 194 212 239 281 229 276 310 55 79 82 45 48 150 288 303 151 182 190 214 133 84 234 104 109 117 120 123 128 132 122 87 67 359 352 346 333 324 325 312 302
256 308 240 256 194 240 166 229 322 321 237 61 346 48 177 51 278 360 28 21 126 100 84 101 149 105 100 111 115 117 131 135 122 154 87 188 235 284 279 331 321 312 314 316
242 196 276 247 180 182 220 249 256 200 174 146 147 282 268 55 10 60 29 50 304 88 69 63 74 63 69 89 120 123 86 78 64 58 57 54 38 43 52 33 24 13 355 337
217 202 239 238 190 210 207 206 193 140 289 36 110 270 340 153 115 55 347 320 1 88 95 80 65 78 77 72 75 61 63 50 41 33 36 36 34 18 25 10 9 3 0 358
204 244 265 293 243 235 212 209 232 123 80 25 86 119 23 117 125 145 203 258 339 130 110 68 50 46 63 71 67 58 50 46 37 27 23 36 37 27 24 14 4 356 351 348
153 219 162 223 110 8 326 185 112 117 92 141 85 134 190 201 152 173 194 180 252 123 122 90 88 74 87 72 69 68 57 40 31 39 44 31 25 18 10 4 359 356 353 350
125 180 135 87 85 68 327 342 107 105 148 105 174 123 227 217 152 186 183 212 168 129 119 132 146 180 129 113 97 80 66 64 54 41 33 27 22 13 4 359 358 355 350 346
149 226 135 118 131 112 256 273 240 125 131 114 136 151 268 330 97 149 177 152 121 130 138 147 144 165 161 97 81 69 70 56 49 44 36 25 14 9 8 3 359 352 348 348
175 158 156 223 191 206 220 229 205 117 139 145 165 212 163 181 105 123 127 124 128 129 119 115 126 91 101 82 68 63 63 56 46 37 26 18 11 5 357 356 355 350 346 345
174 192 181 194 78 180 318 16 99 92 136 165 132 137 153 102 94 83 98 99 85 85 79 77 73 77 76 71 68 61 53 51 38 27 16 7 2 354 349 350 357 353 352 348
170 180 228 114 293 88 327 359 34 98 108 144 126 123 114 108 92 74 97 95 100 101 84 83 99 92 77 70 62 61 59 43 25 11 5 358 357 354 351 353 351 350 348 348
185 183 149 359 161 169 162 316 54 99 80 125 128 135 134 129 127 168 113 106 91 88 77 82 98 92 81 72 64 82 58 39 22 7 1 358 356 355 355 354 352 354 351 345
196 225 200 180 88 97 134 279 72 80 194 122 136 147 151 139 150 133 102 89 96 99 84 94 92 91 82 70 68 79 61 44 15 8 12 16 8 9 8 3 5 3 360 353
169 138 177 101 98 175 197 39 104 191 157 116 106 113 110 113 113 109 100 92 90 87 84 97 94 93 82 69 59 89 76 43 10 355 347 357 15 27 22 18 14 16 10 1
152 168 141 113 174 129 131 157 225 175 110 115 117 120 124 121 116 112 106 101 93 91 87 89 100 89 75 63 42 90 66 25 8 358 21 23 21 21 29 25 18 15 11 11
49 30 117 103 288 106 83 339 231 142 98 117 125 129 125 126 121 118 116 105 100 97 89 85 86 85 72 56 66 56 45 14 3 343 26 37 19 22 15 19 8 3 360 4
352 335 332 55 59 101 209 163 112 87 91 96 92 114 121 118 112 110 108 104 108 105 103 94 92 87 73 65 63 37 18 7 354 355 16 4 20 21 15 16 360 355 344 350
4 5 10 199 171 135 150 113 102 97 94 87 89 90 91 108 109 107 107 110 110 109 104 105 100 93 82 68 56 25 7 355 345 341 328 354 288 296 327 332 340 340 334 317